EW0638 Weather Reports


time (UTC)temp
C
wind
direction
speed
KPH
gust
KPH
rain 1hr
cm
rain 24hr
cm
rain mn
cm
humidity
%
barometer
mb
20260905224516 34 340 6.4 11.3 0.00 0.00 0.00 54 1011.6
20260905223015 35 320 4.8 12.9 0.00 0.00 0.00 52 1011.5
20260905221557 35 311 8.0 12.9 0.00 0.00 0.00 51 1011.6
20260905220059 35 355 4.8 11.3 0.00 0.00 0.00 51 1011.6
20260905214538 35 319 3.2 12.9 0.00 0.00 0.00 51 1011.7
20260905213040 35 313 4.8 11.3 0.00 0.00 0.00 49 1011.8
20260905211520 35 300 1.6 9.7 0.00 0.00 0.00 47 1011.7
20260905210017 35 330 0.0 8.0 0.00 0.00 0.00 45 1012.0
20260905204603 35 303 3.2 9.7 0.00 0.00 0.00 47 1012.3
20260905203057 33 277 1.6 8.0 0.00 0.00 0.00 47 1012.4
20260905201539 31 260 3.2 12.9 0.00 0.00 0.00 55 1012.7
20260905200041 31 276 1.6 11.3 0.00 0.00 0.00 59 1012.9
20260905194520 33 311 4.8 16.1 0.00 0.00 0.00 55 1012.7
20260905193020 35 298 9.7 16.1 0.00 0.00 0.00 51 1012.7
20260905191502 35 319 4.8 11.3 0.00 0.00 0.00 48 1012.7
20260905190001 37 268 4.8 12.9 0.00 0.00 0.00 43 1012.8
20260905184559 37 290 0.0 9.7 0.00 0.00 0.00 45 1012.8
20260905183046 36 335 4.8 11.3 0.00 0.00 0.00 46 1013.0
20260905181522 36 325 3.2 12.9 0.00 0.00 0.00 47 1013.0
20260905180021 35 292 1.6 9.7 0.00 0.00 0.00 47 1013.3
20260905174559 36 316 1.6 12.9 0.00 0.00 0.00 47 1013.4
20260905173110 36 319 1.6 12.9 0.00 0.00 0.00 47 1013.4
20260905171541 36 314 0.0 11.3 0.00 0.00 0.00 47 1013.6
20260905170039 36 341 4.8 12.9 0.00 0.00 0.00 47 1013.9
20260905164519 36 317 4.8 9.7 0.00 0.00 0.00 47 1014.0
20260905163018 36 282 0.0 6.4 0.00 0.00 0.00 49 1014.1
20260905161557 35 310 0.0 6.4 0.00 0.00 0.00 50 1014.1
20260905160055 35 329 1.6 8.0 0.00 0.00 0.00 51 1014.1
20260905154554 35 335 3.2 9.7 0.00 0.00 0.00 53 1014.3
20260905153034 34 329 0.0 8.0 0.00 0.00 0.00 54 1014.3
20260905151514 34 320 1.6 8.0 0.00 0.00 0.00 56 1014.4
20260905150013 33 316 4.8 9.7 0.00 0.00 0.00 57 1014.3
20260905144553 33 330 3.2 6.4 0.00 0.00 0.00 60 1014.3
20260905143050 32 314 0.0 6.4 0.00 0.00 0.00 63 1014.3
20260905141530 32 339 0.0 8.0 0.00 0.00 0.00 65 1014.4
20260905140026 31 300 0.0 4.8 0.00 0.00 0.00 68 1014.6
20260905134508 30 240 0.0 0.0 0.00 0.00 0.00 71 1014.6
20260905133007 28 240 0.0 0.0 0.00 0.00 0.00 75 1014.6
20260905131606 27 240 0.0 3.2 0.00 0.00 0.00 80 1014.6
20260905130057 26 224 0.0 0.0 0.00 0.00 0.00 86 1014.6
20260905124554 24 224 0.0 0.0 0.00 0.00 0.00 95 1014.6
20260905123057 23 224 0.0 0.0 0.00 0.00 0.00 95 1014.6
20260905121555 22 224 0.0 0.0 0.00 0.00 0.00 95 1014.6
20260905120050 22 224 0.0 0.0 0.00 0.00 0.00 94 1014.5
20260905114549 22 224 0.0 0.0 0.00 0.00 0.00 95 1014.4
20260905113044 22 224 0.0 0.0 0.00 0.00 0.00 95 1014.3
20260905111546 21 224 0.0 0.0 0.00 0.00 0.00 94 1014.2
20260905110029 22 224 0.0 0.0 0.00 0.00 0.00 94 1014.0
20260905104509 22 224 0.0 0.0 0.00 0.00 0.00 94 1014.1
20260905103051 22 224 0.0 0.0 0.00 0.00 0.00 94 1014.2
20260905101559 22 224 0.0 0.0 0.00 0.00 0.00 94 1014.1
20260905100036 22 224 0.0 0.0 0.00 0.00 0.00 93 1014.1
20260905094532 22 224 0.0 0.0 0.00 0.00 0.00 92 1014.0
20260905093015 22 224 0.0 0.0 0.00 0.00 0.00 93 1013.9
20260905091515 22 224 0.0 0.0 0.00 0.00 0.00 93 1013.7
20260905090055 22 224 0.0 0.0 0.00 0.00 0.00 93 1013.7
20260905084602 22 224 0.0 0.0 0.00 0.00 0.00 93 1013.7
20260905083035 22 224 0.0 0.0 0.00 0.00 0.00 93 1013.6
20260905081535 22 224 0.0 0.0 0.00 0.00 0.00 92 1013.7
20260905080015 22 224 0.0 0.0 0.00 0.00 0.00 92 1013.9
20260905074519 23 224 0.0 0.0 0.00 0.00 0.00 92 1013.9
20260905073100 23 224 0.0 0.0 0.00 0.00 0.00 92 1014.0
20260905071558 23 224 0.0 0.0 0.00 0.00 0.00 91 1014.0
20260905070039 23 224 0.0 0.0 0.00 0.00 0.00 91 1013.9
20260905064538 23 224 0.0 0.0 0.00 0.00 0.00 92 1013.9
20260905063019 23 224 0.0 0.0 0.00 0.00 0.00 92 1014.0
20260905061520 23 224 0.0 0.0 0.00 0.00 0.00 93 1014.1
20260905060059 23 224 0.0 3.2 0.00 0.00 0.00 92 1014.3
20260905054559 23 224 0.0 0.0 0.00 0.00 0.00 92 1014.2
20260905053044 23 224 0.0 0.0 0.00 0.00 0.00 91 1014.2
20260905051544 23 225 0.0 0.0 0.00 0.00 0.00 91 1014.1
20260905050021 23 225 0.0 0.0 0.00 0.00 0.00 90 1014.2
20260905044520 23 225 0.0 0.0 0.00 0.00 0.00 89 1014.2
20260905043001 23 225 0.0 0.0 0.00 0.00 0.00 89 1014.3
20260905041605 23 225 0.0 0.0 0.00 0.00 0.00 88 1014.4
20260905040043 24 225 0.0 0.0 0.00 0.00 0.00 88 1014.4
20260905034548 24 225 0.0 0.0 0.00 0.00 0.00 88 1014.3
20260905033048 25 225 0.0 0.0 0.00 0.00 0.00 87 1014.3
20260905031518 25 225 0.0 0.0 0.00 0.00 0.00 87 1014.4
20260905030001 25 225 0.0 0.0 0.00 0.00 0.00 86 1014.4
20260905024558 25 225 0.0 0.0 0.00 0.00 0.00 83 1014.3
20260905023049 25 225 0.0 0.0 0.00 0.00 0.00 83 1014.1
20260905021538 26 225 0.0 0.0 0.00 0.00 0.00 82 1014.0
20260905020020 26 225 0.0 0.0 0.00 0.00 0.00 81 1014.0
20260905014520 27 225 0.0 0.0 0.00 0.00 0.00 79 1013.9
20260905013005 27 225 0.0 0.0 0.00 0.00 0.00 76 1013.6
20260905011501 28 225 0.0 0.0 0.00 0.00 0.00 72 1013.7
20260905010049 29 225 0.0 0.0 0.00 0.00 0.00 69 1013.6
20260905004543 30 225 0.0 0.0 0.00 0.00 0.00 66 1013.4
20260905003025 31 225 0.0 0.0 0.00 0.00 0.00 63 1013.3
20260905001526 33 225 0.0 0.0 0.00 0.00 0.00 61 1013.2
20260905000011 35 225 0.0 0.0 0.00 0.00 0.00 57 1013.2
20260904234508 36 225 0.0 0.0 0.00 0.00 0.00 54 1013.2
20260904233050 36 225 0.0 0.0 0.00 0.00 0.00 45 1013.1
20260904231549 35 225 0.0 3.2 0.00 0.00 0.00 45 1013.0
20260904230055 36 227 0.0 4.8 0.00 0.00 0.00 44 1013.0